EA7WL-13 Weather Reports


time (UTC)temp
C
wind
direction
speed
KPH
gust
KPH
rain 1hr
cm
rain 24hr
cm
rain mn
cm
humidity
%
barometer
mb
20260510234503 9 203 0.0 1.6 0.00 0.28 0.00 88 1019.2
20260510234217 9 0 0.0 0.0 0.00 0.28 0.00 88 1019.0
20260510233717 9 214 0.0 1.6 0.00 0.28 0.00 87 1019.1
20260510233003 10 199 0.0 1.6 0.00 0.28 0.00 85 1019.1
20260510232716 10 192 0.0 1.6 0.00 0.28 0.00 85 1019.1
20260510232003 10 192 0.0 3.2 0.00 0.28 0.00 85 1019.2
20260510231503 10 181 1.6 3.2 0.00 0.28 0.00 85 1019.3
20260510231003 10 183 1.6 3.2 0.00 0.28 0.00 84 1019.1
20260510230503 10 196 1.6 3.2 0.00 0.28 0.00 82 1019.2
20260510230003 10 190 1.6 3.2 0.00 0.28 0.00 82 1019.1
20260510225503 10 185 1.6 3.2 0.00 0.28 0.00 81 1019.1
20260510225003 10 170 1.6 3.2 0.00 0.28 0.00 81 1019.0
20260510224503 10 162 1.6 3.2 0.00 0.28 0.00 81 1019.2
20260510224003 10 165 0.0 3.2 0.00 0.28 0.00 82 1019.3
20260510223503 11 193 0.0 3.2 0.00 0.28 0.00 81 1019.3
20260510223003 11 211 1.6 6.4 0.00 0.28 0.00 80 1019.3
20260510222503 11 208 4.8 6.4 0.00 0.28 0.00 80 1019.3
20260510222003 11 205 3.2 6.4 0.00 0.28 0.00 80 1019.3
20260510221503 11 210 3.2 6.4 0.00 0.28 0.00 80 1019.1
20260510221003 11 218 3.2 6.4 0.00 0.28 0.00 80 1019.4
20260510220503 11 221 4.8 6.4 0.00 0.28 0.00 80 1019.4
20260510220004 11 216 4.8 9.7 0.00 0.28 0.00 80 1019.4
20260510215503 11 213 4.8 9.7 0.00 0.28 0.28 78 1019.4
20260510215217 11 209 4.8 9.7 0.00 0.28 0.28 78 1019.4
20260510214503 11 209 4.8 9.7 0.00 0.28 0.28 78 1019.3
20260510214003 12 217 4.8 9.7 0.00 0.28 0.28 79 1019.2
20260510213503 12 207 4.8 9.7 0.00 0.28 0.28 78 1019.4
20260510213003 12 198 4.8 9.7 0.00 0.28 0.28 79 1019.3
20260510212503 12 197 4.8 9.7 0.00 0.28 0.28 81 1019.1
20260510212219 12 200 4.8 9.7 0.00 0.28 0.28 82 1019.4
20260510211717 12 207 4.8 11.3 0.00 0.28 0.28 82 1019.1
20260510211003 12 222 4.8 12.9 0.00 0.28 0.28 79 1019.2
20260510210503 12 230 4.8 11.3 0.00 0.28 0.28 79 1019.0
20260510210004 12 256 4.8 9.7 0.00 0.28 0.28 80 1019.0
20260510205503 12 266 4.8 9.7 0.00 0.28 0.28 80 1019.1
20260510205003 12 276 4.8 6.4 0.00 0.28 0.28 81 1019.1
20260510204503 12 270 4.8 9.7 0.00 0.28 0.28 80 1018.9
20260510204003 13 257 4.8 9.7 0.00 0.28 0.28 79 1019.0
20260510203503 13 264 4.8 6.4 0.00 0.28 0.28 79 1018.9
20260510203003 13 274 3.2 6.4 0.00 0.28 0.28 78 1019.0
20260510202503 13 273 3.2 4.8 0.00 0.28 0.28 78 1018.9
20260510202003 13 269 3.2 4.8 0.00 0.28 0.28 78 1018.9
20260510201503 13 289 3.2 6.4 0.00 0.28 0.28 77 1019.0
20260510201003 13 298 4.8 6.4 0.00 0.28 0.28 77 1019.0
20260510200503 13 289 1.6 6.4 0.00 0.28 0.28 76 1019.0
20260510200004 13 268 1.6 4.8 0.00 0.28 0.28 75 1019.0
20260510195503 13 285 1.6 9.7 0.00 0.28 0.28 75 1018.9
20260510195218 13 291 1.6 9.7 0.00 0.28 0.28 75 1018.9
20260510194503 13 279 1.6 4.8 0.00 0.28 0.28 74 1018.6
20260510194003 13 288 1.6 6.4 0.00 0.28 0.28 74 1018.6
20260510193503 13 292 3.2 6.4 0.00 0.28 0.28 74 1018.4
20260510193003 13 278 3.2 4.8 0.00 0.28 0.28 73 1018.5
20260510192503 13 284 3.2 6.4 0.00 0.28 0.28 73 1018.4
20260510192003 13 306 3.2 6.4 0.00 0.28 0.28 72 1018.4
20260510191504 14 281 3.2 6.4 0.00 0.28 0.28 72 1018.4
20260510191003 14 251 3.2 6.4 0.00 0.28 0.28 69 1018.5
20260510190503 14 272 4.8 9.7 0.00 0.28 0.28 67 1018.6
20260510190003 14 272 3.2 9.7 0.00 0.28 0.28 67 1018.4
20260510185717 14 262 3.2 9.7 0.00 0.28 0.28 68 1018.4
20260510185003 14 209 3.2 9.7 0.00 0.28 0.28 66 1018.3
20260510184503 14 214 3.2 9.7 0.00 0.28 0.28 67 1018.4
20260510184003 14 221 3.2 9.7 0.00 0.28 0.28 66 1018.5
20260510183716 14 199 3.2 12.9 0.00 0.28 0.28 66 1018.3
20260510183003 14 192 3.2 12.9 0.00 0.28 0.28 65 1018.4
20260510182503 15 209 3.2 9.7 0.00 0.28 0.28 65 1018.5
20260510182004 15 182 1.6 4.8 0.00 0.28 0.28 66 1018.2
20260510181503 15 187 1.6 4.8 0.00 0.28 0.28 65 1018.3
20260510181003 15 211 1.6 6.4 0.00 0.28 0.28 66 1018.4
20260510180503 15 204 3.2 9.7 0.00 0.28 0.28 65 1018.4
20260510180217 15 194 3.2 14.5 0.00 0.28 0.28 66 1018.3
20260510175718 15 179 3.2 14.5 0.00 0.28 0.28 66 1018.2
20260510175003 15 198 3.2 11.3 0.00 0.28 0.28 66 1018.3
20260510174503 15 204 4.8 11.3 0.00 0.28 0.28 66 1018.2
20260510174003 15 217 4.8 12.9 0.00 0.28 0.28 66 1018.4
20260510173503 15 221 6.4 12.9 0.00 0.28 0.28 65 1018.3
20260510173217 15 234 8.0 14.5 0.00 0.28 0.28 65 1018.4
20260510172503 15 253 6.4 14.5 0.00 0.28 0.28 65 1018.3
20260510172217 15 234 6.4 12.9 0.00 0.28 0.28 65 1018.2
20260510171503 15 261 8.0 16.1 0.00 0.28 0.28 65 1018.2
20260510171003 15 277 6.4 16.1 0.00 0.28 0.28 66 1018.3
20260510170503 15 239 4.8 14.5 0.00 0.28 0.28 67 1018.3
20260510170003 15 226 8.0 17.7 0.00 0.28 0.28 68 1018.3
20260510165503 15 231 9.7 17.7 0.00 0.28 0.28 70 1018.3
20260510165003 15 248 11.3 24.1 0.00 0.28 0.28 68 1018.2
20260510164503 15 248 11.3 25.7 0.00 0.28 0.28 68 1018.2
20260510164003 15 239 11.3 25.7 0.00 0.28 0.28 68 1017.9
20260510163718 15 245 11.3 20.9 0.00 0.28 0.28 68 1018.1
20260510163003 15 263 11.3 20.9 0.00 0.28 0.28 68 1018.2
20260510162718 15 268 11.3 20.9 0.00 0.28 0.28 69 1017.9
20260510162217 15 274 11.3 22.5 0.00 0.28 0.28 70 1018.2
20260510161503 15 272 12.9 22.5 0.00 0.28 0.28 71 1018.3
20260510161003 16 262 9.7 17.7 0.00 0.28 0.28 67 1018.2
20260510160503 16 272 9.7 14.5 0.00 0.28 0.28 67 1018.1
20260510160003 16 273 11.3 24.1 0.00 0.28 0.28 67 1018.1
20260510155503 16 271 9.7 24.1 0.00 0.28 0.28 68 1018.1
20260510155003 16 274 8.0 20.9 0.00 0.28 0.28 68 1018.1
20260510154717 15 277 9.7 20.9 0.00 0.28 0.28 68 1017.9
20260510154003 15 273 9.7 20.9 0.00 0.28 0.28 70 1018.0
20260510153503 16 272 11.3 22.5 0.00 0.28 0.28 70 1017.9
20260510153003 16 283 11.3 22.5 0.00 0.28 0.28 69 1017.7
20260510152503 16 283 8.0 20.9 0.00 0.28 0.28 66 1017.8
20260510152218 16 260 9.7 17.7 0.03 0.28 0.28 67 1017.8
20260510151503 16 248 14.5 29.0 0.03 0.28 0.28 69 1017.7
20260510151003 16 245 16.1 35.4 0.03 0.28 0.28 67 1017.8
20260510150503 16 226 14.5 37.0 0.03 0.28 0.28 65 1017.9
20260510150003 16 224 12.9 37.0 0.03 0.28 0.28 66 1018.0
20260510145503 16 219 12.9 25.7 0.03 0.28 0.28 67 1018.0
20260510145003 15 227 11.3 25.7 0.03 0.28 0.28 69 1017.9
20260510144717 16 237 11.3 25.7 0.03 0.28 0.28 70 1017.9
20260510144003 15 239 11.3 24.1 0.03 0.28 0.28 76 1017.9
20260510143503 14 256 12.9 22.5 0.03 0.28 0.28 80 1018.3
20260510143003 13 253 14.5 27.4 0.03 0.28 0.28 81 1018.2
20260510142503 14 241 17.7 30.6 0.03 0.28 0.28 78 1018.1
20260510142003 15 220 19.3 30.6 0.00 0.25 0.25 71 1018.0
20260510141503 17 196 19.3 48.3 0.00 0.25 0.25 60 1017.7
20260510141003 17 201 22.5 51.5 0.00 0.25 0.25 59 1017.6
20260510140503 17 211 22.5 51.5 0.00 0.25 0.25 61 1017.4
20260510140003 17 220 24.1 43.5 0.00 0.25 0.25 66 1017.7
20260510135503 16 220 22.5 43.5 0.00 0.25 0.25 66 1017.7
20260510135003 16 218 17.7 33.8 0.00 0.25 0.25 67 1017.7
20260510134717 16 227 17.7 33.8 0.00 0.25 0.25 69 1017.7
20260510134218 16 234 19.3 29.0 0.00 0.25 0.25 71 1017.5
20260510133503 15 223 20.9 33.8 0.00 0.28 0.25 73 1017.8
20260510133003 16 206 19.3 41.8 0.00 0.28 0.25 71 1018.0
20260510132503 16 191 19.3 41.8 0.00 0.28 0.25 68 1017.6
20260510132003 17 201 17.7 41.8 0.00 0.28 0.25 70 1017.8
20260510131719 17 209 16.1 35.4 0.00 0.28 0.25 68 1017.6
20260510131003 17 208 19.3 43.5 0.00 0.28 0.25 65 1017.7
20260510130716 16 208 20.9 46.7 0.00 0.28 0.25 66 1017.7
20260510130218 16 196 17.7 46.7 0.00 0.28 0.25 68 1017.6
20260510125503 16 183 16.1 33.8 0.00 0.28 0.25 70 1017.6
20260510125003 16 196 16.1 33.8 0.00 0.28 0.25 72 1017.7
20260510124503 17 193 14.5 29.0 0.00 0.28 0.25 70 1017.9
20260510124003 16 215 12.9 27.4 0.00 0.28 0.25 72 1017.9
20260510123503 16 235 14.5 25.7 0.00 0.28 0.25 74 1017.8
20260510123003 15 226 16.1 27.4 0.00 0.28 0.25 77 1017.9
20260510122503 15 209 16.1 30.6 0.00 0.28 0.25 75 1018.0
20260510122003 16 208 14.5 30.6 0.00 0.28 0.25 77 1017.9
20260510121503 15 208 14.5 30.6 0.03 0.28 0.25 78 1017.9
20260510121003 16 201 14.5 35.4 0.03 0.28 0.25 74 1018.1
20260510120503 15 206 14.5 35.4 0.03 0.28 0.25 76 1018.0
20260510120003 15 219 11.3 22.5 0.03 0.28 0.25 80 1018.1
20260510115503 14 201 14.5 27.4 0.03 0.28 0.25 83 1018.0
20260510115003 14 194 12.9 27.4 0.03 0.28 0.25 83 1018.2
20260510114718 14 200 11.3 27.4 0.03 0.28 0.25 83 1018.1
20260510114003 13 223 9.7 25.7 0.03 0.28 0.25 86 1018.0
20260510113503 13 222 11.3 25.7 0.03 0.28 0.25 87 1018.3
20260510113003 13 216 9.7 17.7 0.03 0.28 0.25 88 1018.3
20260510112503 13 204 11.3 24.1 0.03 0.28 0.25 87 1018.3
20260510112003 13 210 16.1 27.4 0.03 0.28 0.25 86 1018.3
20260510111718 13 211 17.7 33.8 0.03 0.28 0.25 85 1018.2
20260510111003 14 205 20.9 38.6 0.00 0.25 0.23 80 1018.3
20260510110503 15 206 16.1 30.6 0.00 0.25 0.23 79 1018.1
20260510110003 16 205 14.5 30.6 0.00 0.25 0.23 71 1017.8
20260510105503 16 200 16.1 35.4 0.00 0.25 0.23 72 1017.8
20260510105217 16 200 17.7 35.4 0.00 0.25 0.23 72 1018.0
20260510104503 16 197 20.9 46.7 0.00 0.25 0.23 71 1017.8
20260510104217 16 191 20.9 46.7 0.03 0.25 0.23 69 1017.8
20260510103503 16 193 19.3 37.0 0.03 0.25 0.23 73 1018.0
20260510103003 16 201 19.3 38.6 0.03 0.25 0.23 71 1017.9
20260510102503 15 202 17.7 38.6 0.03 0.25 0.23 75 1018.0
20260510102003 15 199 17.7 38.6 0.03 0.25 0.23 78 1018.0
20260510101503 14 208 19.3 38.6 0.03 0.25 0.23 81 1017.9
20260510101003 14 220 17.7 30.6 0.03 0.25 0.23 82 1018.0
20260510100503 15 209 17.7 37.0 0.03 0.25 0.23 84 1018.1
20260510100003 14 202 19.3 40.2 0.03 0.25 0.23 85 1017.9
20260510095503 13 204 17.7 40.2 0.03 0.25 0.23 86 1017.9
20260510095003 13 202 17.7 33.8 0.03 0.25 0.23 88 1017.9
20260510094503 13 201 17.7 35.4 0.03 0.25 0.23 87 1018.0
20260510094003 13 198 17.7 35.4 0.00 0.23 0.20 86 1018.0
20260510093717 13 199 19.3 35.4 0.00 0.23 0.20 85 1017.8
20260510093003 15 197 20.9 35.4 0.00 0.23 0.20 80 1017.7
20260510092503 14 193 20.9 35.4 0.00 0.23 0.20 78 1017.6
20260510092003 15 193 19.3 41.8 0.00 0.23 0.20 77 1017.6
20260510091503 15 186 20.9 41.8 0.00 0.23 0.20 77 1017.5
20260510091003 15 189 17.7 35.4 0.00 0.23 0.20 78 1017.4
20260510090503 14 194 17.7 30.6 0.00 0.23 0.20 79 1017.2
20260510090218 14 192 17.7 30.6 0.00 0.23 0.20 81 1017.3
20260510085503 14 193 16.1 37.0 0.00 0.23 0.20 80 1017.5
20260510085003 14 199 14.5 29.0 0.00 0.23 0.20 79 1017.4
20260510084503 13 195 16.1 30.6 0.00 0.23 0.20 84 1017.4
20260510084003 13 195 19.3 30.6 0.00 0.23 0.20 83 1017.5
20260510083717 13 188 19.3 38.6 0.00 0.23 0.20 82 1017.6
20260510083003 14 191 20.9 48.3 0.00 0.23 0.20 78 1017.4
20260510082503 14 191 19.3 41.8 0.00 0.23 0.20 79 1017.5
20260510082003 14 186 20.9 41.8 0.00 0.23 0.20 76 1017.1
20260510081503 15 188 19.3 40.2 0.00 0.23 0.20 76 1017.3
20260510081003 15 194 17.7 38.6 0.00 0.23 0.20 75 1017.1
20260510080503 14 208 19.3 38.6 0.00 0.23 0.20 76 1017.2
20260510080003 14 214 19.3 37.0 0.00 0.23 0.20 78 1017.4
20260510075503 14 204 17.7 37.0 0.00 0.23 0.20 78 1017.2
20260510075003 13 200 12.9 29.0 0.00 0.23 0.20 79 1017.4
20260510074503 13 201 12.9 29.0 0.00 0.23 0.20 81 1017.4
20260510074003 13 198 14.5 29.0 0.00 0.23 0.20 82 1017.3
20260510073716 13 192 14.5 29.0 0.00 0.23 0.20 82 1017.3
20260510073003 13 200 12.9 29.0 0.00 0.23 0.20 82 1017.3
20260510072503 13 196 9.7 27.4 0.00 0.23 0.20 82 1017.2
20260510072003 13 187 11.3 24.1 0.00 0.23 0.20 83 1017.2
20260510071718 13 189 11.3 24.1 0.00 0.23 0.20 84 1017.2
20260510071003 13 189 6.4 16.1 0.00 0.23 0.20 83 1017.1
20260510070718 13 187 8.0 24.1 0.00 0.23 0.20 83 1017.2
20260510070217 13 188 8.0 24.1 0.00 0.23 0.20 83 1016.9
20260510065718 13 195 8.0 16.1 0.00 0.23 0.20 83 1016.9
20260510065003 13 185 6.4 16.1 0.00 0.23 0.20 84 1017.0
20260510064503 13 180 6.4 17.7 0.00 0.23 0.20 84 1017.2
20260510064217 13 199 6.4 17.7 0.00 0.23 0.20 84 1017.1
20260510063503 13 188 8.0 17.7 0.00 0.23 0.20 84 1017.2
20260510063003 12 162 6.4 14.5 0.03 0.23 0.20 86 1017.2
20260510062503 12 171 3.2 11.3 0.03 0.23 0.20 87 1017.3
20260510062003 12 189 3.2 11.3 0.03 0.23 0.20 87 1017.2
20260510061718 12 202 1.6 11.3 0.03 0.23 0.20 87 1017.2
20260510061003 12 226 1.6 6.4 0.03 0.23 0.20 88 1017.2
20260510060503 12 220 3.2 9.7 0.03 0.23 0.20 88 1017.2
20260510060003 12 211 4.8 16.1 0.03 0.23 0.20 88 1017.1
20260510055503 12 196 8.0 25.7 0.03 0.23 0.20 88 1017.1
20260510055217 12 192 8.0 25.7 0.05 0.23 0.20 88 1017.0
20260510054503 12 193 8.0 22.5 0.08 0.23 0.20 90 1016.8
20260510054003 12 207 6.4 16.1 0.10 0.23 0.20 91 1016.9
20260510053503 12 210 8.0 16.1 0.13 0.23 0.20 90 1016.9
20260510053004 12 203 8.0 16.1 0.13 0.20 0.18 90 1016.8
20260510052503 12 196 8.0 17.7 0.15 0.20 0.18 90 1016.9
20260510052003 12 195 8.0 17.7 0.15 0.20 0.18 91 1017.0
20260510051503 12 196 3.2 12.9 0.15 0.20 0.18 92 1016.8
20260510051003 12 227 3.2 9.7 0.18 0.20 0.18 93 1016.8
20260510050718 11 230 3.2 9.7 0.18 0.20 0.18 93 1016.9
20260510050003 12 211 3.2 9.7 0.18 0.20 0.18 93 1016.9
20260510045503 11 214 4.8 9.7 0.18 0.20 0.18 92 1016.9
20260510045003 11 220 3.2 9.7 0.15 0.18 0.15 92 1016.9
20260510044503 12 225 3.2 6.4 0.13 0.15 0.13 92 1016.6
20260510044003 12 225 4.8 6.4 0.10 0.13 0.10 91 1016.7
20260510043717 12 225 3.2 6.4 0.08 0.10 0.08 91 1016.8
20260510043003 12 226 3.2 6.4 0.05 0.08 0.05 90 1016.8
20260510042503 12 202 3.2 6.4 0.03 0.05 0.03 90 1016.6
20260510042003 12 202 4.8 9.7 0.03 0.05 0.03 89 1016.6
20260510041503 12 201 3.2 9.7 0.03 0.05 0.03 87 1016.9
20260510041003 12 200 1.6 6.4 0.00 0.03 0.00 86 1016.8
20260510040717 12 196 1.6 6.4 0.00 0.03 0.00 85 1016.7
20260510040003 12 185 1.6 6.4 0.00 0.03 0.00 83 1016.9
20260510035717 12 175 1.6 6.4 0.00 0.03 0.00 83 1016.7
20260510035218 12 169 3.2 9.7 0.00 0.03 0.00 83 1016.5
20260510034503 12 170 4.8 11.3 0.00 0.03 0.00 83 1016.7
20260510034003 12 153 3.2 11.3 0.00 0.03 0.00 83 1016.9
20260510033503 12 157 1.6 4.8 0.00 0.03 0.00 82 1016.7
20260510033003 12 168 1.6 6.4 0.00 0.03 0.00 82 1016.7
20260510032503 12 178 3.2 9.7 0.00 0.03 0.00 82 1016.8
20260510032218 12 175 3.2 9.7 0.00 0.03 0.00 82 1016.7
20260510031717 12 167 4.8 11.3 0.00 0.03 0.00 82 1016.8
20260510031218 12 170 6.4 20.9 0.00 0.03 0.00 82 1016.7
20260510030503 12 175 8.0 20.9 0.00 0.03 0.00 83 1016.8
20260510030003 12 167 4.8 14.5 0.00 0.03 0.00 84 1016.6
20260510025503 12 158 1.6 4.8 0.00 0.03 0.00 84 1016.6
20260510025218 12 157 1.6 4.8 0.00 0.03 0.00 84 1016.8
20260510024503 12 175 3.2 11.3 0.00 0.03 0.00 84 1016.9
20260510024218 12 167 4.8 11.3 0.00 0.03 0.00 84 1017.0
20260510023503 12 146 8.0 12.9 0.00 0.03 0.00 83 1017.1
20260510023004 12 144 8.0 14.5 0.00 0.03 0.00 84 1016.9
20260510022503 12 142 9.7 16.1 0.00 0.03 0.00 84 1016.9
20260510022003 12 148 9.7 16.1 0.00 0.03 0.00 83 1017.1
20260510021503 12 154 9.7 14.5 0.00 0.03 0.00 84 1017.0
20260510021003 12 150 9.7 14.5 0.00 0.03 0.00 84 1016.9
20260510020716 12 150 8.0 14.5 0.00 0.03 0.00 84 1017.1
20260510020217 12 157 8.0 14.5 0.00 0.03 0.00 85 1016.9
20260510015716 12 154 9.7 14.5 0.00 0.03 0.00 85 1016.9
20260510015003 12 163 8.0 17.7 0.00 0.03 0.00 85 1017.0
20260510014503 12 166 9.7 17.7 0.00 0.03 0.00 84 1017.3
20260510014003 12 164 9.7 17.7 0.00 0.03 0.00 84 1017.4
20260510013503 12 157 9.7 17.7 0.00 0.03 0.00 84 1017.2
20260510013003 12 158 8.0 14.5 0.00 0.03 0.00 85 1017.4
20260510012503 12 165 8.0 16.1 0.00 0.03 0.00 84 1017.2
20260510012003 12 163 8.0 16.1 0.00 0.03 0.00 85 1017.3
20260510011503 12 160 8.0 14.5 0.00 0.03 0.00 85 1017.4
20260510011003 12 164 8.0 16.1 0.00 0.03 0.00 84 1017.5
20260510010504 12 155 9.7 16.1 0.00 0.03 0.00 84 1017.5
20260510010003 12 151 9.7 14.5 0.00 0.03 0.00 84 1017.5
20260510005503 12 152 8.0 12.9 0.00 0.03 0.00 84 1017.7
20260510005003 12 149 8.0 12.9 0.00 0.03 0.00 85 1017.8
20260510004503 12 148 8.0 12.9 0.00 0.03 0.00 84 1017.9
20260510004003 12 146 8.0 12.9 0.00 0.03 0.00 84 1017.8
20260510003503 12 146 8.0 12.9 0.00 0.03 0.00 84 1017.9
20260510003217 12 148 8.0 12.9 0.00 0.03 0.00 83 1017.9
20260510002503 12 152 8.0 12.9 0.00 0.03 0.00 82 1017.8
20260510002003 12 156 6.4 12.9 0.00 0.03 0.00 83 1018.0
20260510001503 11 147 4.8 11.3 0.00 0.03 0.00 83 1017.9
20260510001003 12 140 3.2 6.4 0.00 0.03 0.00 82 1017.8
20260510000503 12 153 1.6 3.2 0.00 0.03 0.00 82 1017.9
20260510000003 12 163 1.6 4.8 0.00 0.03 0.00 82 1017.9
20260509235503 12 289 1.6 4.8 0.00 0.03 0.00 83 1017.9
20260509235003 12 311 1.6 4.8 0.00 0.03 0.00 83 1018.0